Location: Malvern Link
(52.1333°N, 2.3000°W)
Time: 21:34:35
(UTC+00:00)

DIWATA 2B (PO-101) - Pass Details

Date: 03 July 2022
Orbit: 583 x 599 km, 98.0° (Epoch: 07 August)

Event Time Altitude Azimuth Distance (km) Brightness Sun altitude
Exits shadow 01:56:11 11° 169° (S) 1,846 ? -11.6°
Maximum altitude 02:00:10 79° 257° (WSW) 618 ? -11.4°
Drops below altitude 10° 02:04:25 10° 343° (NNW) 1,953 ? -11.1°
Sets 02:06:36 0° 345° (NNW) 2,859 ? -10.9°
